When you browse on this site, cookies collect data to enhance your experience and personalize the content and advertising you see.
Visit our Privacy Policy to learn more. By continuing to use the site, you agree to this use of cookies and data.

Stündliche Wetter Dresden

Heute, 3 Juli, Freitag

Zeit Temperatur Niederschläge Wind Luftdruck Luftfeuchtigkeit
00:00 +18°C° 0.1 mm 3 m/S 747 mmHg 86%
01:00 +17°C° 0 mm 3 m/S 747 mmHg 90%
02:00 +17°C° 0 mm 3 m/S 747 mmHg 91%
03:00 +16°C° 0 mm 3 m/S 747 mmHg 92%
04:00 +16°C° 0 mm 3 m/S 748 mmHg 93%
05:00 +16°C° 0 mm 3 m/S 748 mmHg 91%
06:00 +17°C° 0 mm 4 m/S 749 mmHg 88%
07:00 +18°C° 0 mm 3 m/S 749 mmHg 85%
08:00 +19°C° 0.1 mm 4 m/S 749 mmHg 78%
09:00 +20°C° 0.1 mm 4 m/S 750 mmHg 71%
10:00 +21°C° 0.1 mm 5 m/S 750 mmHg 64%
11:00 +21°C° 0 mm 5 m/S 750 mmHg 61%
12:00 +22°C° 0 mm 5 m/S 750 mmHg 57%
13:00 +23°C° 0 mm 5 m/S 750 mmHg 54%
14:00 +23°C° 0 mm 5 m/S 750 mmHg 54%
15:00 +23°C° 0 mm 4 m/S 750 mmHg 54%
16:00 +23°C° 0 mm 4 m/S 749 mmHg 55%
17:00 +22°C° 0 mm 3 m/S 750 mmHg 60%
18:00 +22°C° 0 mm 3 m/S 750 mmHg 65%
19:00 +21°C° 0 mm 2 m/S 750 mmHg 70%
20:00 +20°C° 0 mm 2 m/S 750 mmHg 73%
21:00 +18°C° 0 mm 2 m/S 751 mmHg 76%
22:00 +17°C° 0 mm 2 m/S 751 mmHg 78%
23:00 +17°C° 0 mm 2 m/S 751 mmHg 78%

Morgen, 4 Juli, Samstag

Zeit Temperatur Niederschläge Wind Luftdruck Luftfeuchtigkeit
00:00 +16°C° 0 mm 2 m/S 751 mmHg 78%
01:00 +16°C° 0 mm 2 m/S 751 mmHg 77%
02:00 +16°C° 0 mm 2 m/S 751 mmHg 77%
03:00 +16°C° 0 mm 3 m/S 751 mmHg 77%
04:00 +16°C° 0 mm 3 m/S 751 mmHg 77%
05:00 +17°C° 0 mm 3 m/S 751 mmHg 75%
06:00 +18°C° 0 mm 3 m/S 751 mmHg 72%
07:00 +19°C° 0 mm 3 m/S 751 mmHg 70%
08:00 +21°C° 0 mm 4 m/S 751 mmHg 66%
09:00 +22°C° 0 mm 4 m/S 751 mmHg 63%
10:00 +23°C° 0 mm 4 m/S 751 mmHg 60%
11:00 +23°C° 0 mm 4 m/S 751 mmHg 58%
12:00 +25°C° 0 mm 4 m/S 751 mmHg 56%
13:00 +25°C° 0 mm 4 m/S 750 mmHg 54%
14:00 +26°C° 0 mm 4 m/S 750 mmHg 54%
15:00 +26°C° 0 mm 4 m/S 750 mmHg 54%
16:00 +26°C° 0 mm 4 m/S 750 mmHg 54%
17:00 +25°C° 0 mm 3 m/S 750 mmHg 59%
18:00 +24°C° 0 mm 3 m/S 750 mmHg 63%
19:00 +24°C° 0 mm 2 m/S 750 mmHg 68%
20:00 +21°C° 0 mm 2 m/S 750 mmHg 70%
21:00 +20°C° 0 mm 2 m/S 750 mmHg 72%
22:00 +19°C° 0 mm 2 m/S 750 mmHg 74%
23:00 +19°C° 0 mm 3 m/S 750 mmHg 73%

übermorgen, 5 Juli, Sonntag

Zeit Temperatur Niederschläge Wind Luftdruck Luftfeuchtigkeit
00:00 +19°C° 0 mm 3 m/S 750 mmHg 73%
01:00 +18°C° 0 mm 4 m/S 750 mmHg 73%
02:00 +18°C° 0 mm 4 m/S 750 mmHg 73%
03:00 +19°C° 0 mm 4 m/S 750 mmHg 74%
04:00 +19°C° 0 mm 4 m/S 749 mmHg 74%
05:00 +19°C° 0 mm 4 m/S 749 mmHg 76%
06:00 +19°C° 0 mm 5 m/S 749 mmHg 78%
07:00 +20°C° 0 mm 5 m/S 749 mmHg 79%
08:00 +20°C° 0 mm 5 m/S 749 mmHg 79%
09:00 +20°C° 0 mm 5 m/S 749 mmHg 79%
10:00 +21°C° 0 mm 4 m/S 749 mmHg 78%
11:00 +22°C° 0.1 mm 5 m/S 749 mmHg 76%
12:00 +23°C° 0.1 mm 5 m/S 749 mmHg 74%
13:00 +23°C° 0.1 mm 6 m/S 748 mmHg 71%
14:00 +24°C° 0 mm 6 m/S 748 mmHg 69%
15:00 +26°C° 0 mm 6 m/S 748 mmHg 66%
16:00 +27°C° 0 mm 7 m/S 748 mmHg 63%
17:00 +26°C° 0 mm 6 m/S 747 mmHg 67%
18:00 +25°C° 0 mm 5 m/S 747 mmHg 71%
19:00 +23°C° 0 mm 4 m/S 747 mmHg 76%
20:00 +22°C° 0 mm 4 m/S 747 mmHg 77%
21:00 +21°C° 0 mm 5 m/S 747 mmHg 78%
22:00 +20°C° 0 mm 5 m/S 747 mmHg 80%
23:00 +20°C° 0 mm 5 m/S 746 mmHg 81%

6 Juli, Montag

Zeit Temperatur Niederschläge Wind Luftdruck Luftfeuchtigkeit
00:00 +20°C° 0 mm 5 m/S 746 mmHg 81%
01:00 +19°C° 0 mm 5 m/S 746 mmHg 82%
02:00 +19°C° 0.1 mm 5 m/S 746 mmHg 84%
03:00 +19°C° 0.1 mm 5 m/S 746 mmHg 85%
04:00 +19°C° 0.1 mm 5 m/S 746 mmHg 87%
05:00 +17°C° 0.3 mm 5 m/S 746 mmHg 86%
06:00 +17°C° 0.3 mm 5 m/S 746 mmHg 85%
07:00 +17°C° 0.3 mm 5 m/S 746 mmHg 84%
08:00 +17°C° 0 mm 6 m/S 746 mmHg 77%
09:00 +18°C° 0 mm 7 m/S 746 mmHg 69%
10:00 +20°C° 0 mm 8 m/S 747 mmHg 61%
11:00 +20°C° 0 mm 8 m/S 747 mmHg 59%
12:00 +20°C° 0 mm 8 m/S 747 mmHg 56%
13:00 +20°C° 0 mm 7 m/S 747 mmHg 54%
14:00 +20°C° 0 mm 7 m/S 747 mmHg 54%
15:00 +20°C° 0 mm 7 m/S 747 mmHg 54%
16:00 +20°C° 0 mm 7 m/S 748 mmHg 54%
17:00 +19°C° 0 mm 6 m/S 748 mmHg 58%
18:00 +17°C° 0 mm 5 m/S 748 mmHg 62%
19:00 +18°C° 0 mm 4 m/S 749 mmHg 66%
20:00 +17°C° 0 mm 4 m/S 749 mmHg 70%
21:00 +14°C° 0 mm 3 m/S 750 mmHg 74%
22:00 +13°C° 0 mm 3 m/S 750 mmHg 78%
23:00 +13°C° 0 mm 3 m/S 750 mmHg 80%

7 Juli, Dienstag

Zeit Temperatur Niederschläge Wind Luftdruck Luftfeuchtigkeit
00:00 +12°C° 0 mm 3 m/S 751 mmHg 82%
01:00 +11°C° 0 mm 4 m/S 751 mmHg 84%
02:00 +11°C° 0 mm 3 m/S 751 mmHg 87%
03:00 +10°C° 0 mm 3 m/S 752 mmHg 90%
04:00 +10°C° 0 mm 3 m/S 752 mmHg 93%
05:00 +11°C° 0 mm 3 m/S 752 mmHg 88%
06:00 +12°C° 0 mm 3 m/S 752 mmHg 84%
07:00 +13°C° 0 mm 3 m/S 752 mmHg 80%
08:00 +14°C° 0.1 mm 3 m/S 752 mmHg 75%
09:00 +16°C° 0.1 mm 3 m/S 752 mmHg 69%
10:00 +17°C° 0.1 mm 3 m/S 752 mmHg 64%
11:00 +18°C° 0.1 mm 3 m/S 752 mmHg 61%
12:00 +18°C° 0.1 mm 4 m/S 752 mmHg 59%
13:00 +19°C° 0.1 mm 4 m/S 752 mmHg 56%
14:00 +19°C° 0 mm 4 m/S 752 mmHg 56%
15:00 +19°C° 0 mm 4 m/S 752 mmHg 56%
16:00 +19°C° 0 mm 4 m/S 751 mmHg 56%
17:00 +19°C° 0 mm 4 m/S 752 mmHg 60%
18:00 +18°C° 0 mm 3 m/S 752 mmHg 64%
19:00 +17°C° 0 mm 3 m/S 752 mmHg 69%
20:00 +16°C° 0 mm 2 m/S 752 mmHg 73%
21:00 +15°C° 0 mm 2 m/S 753 mmHg 77%
22:00 +13°C° 0 mm 2 m/S 753 mmHg 81%
23:00 +13°C° 0 mm 2 m/S 753 mmHg 83%

8 Juli, Mittwoch

Zeit Temperatur Niederschläge Wind Luftdruck Luftfeuchtigkeit
00:00 +13°C° 0 mm 2 m/S 753 mmHg 85%
01:00 +12°C° 0 mm 2 m/S 754 mmHg 86%
02:00 +12°C° 0 mm 2 m/S 754 mmHg 89%
03:00 +10°C° 0 mm 2 m/S 754 mmHg 91%
04:00 +10°C° 0 mm 2 m/S 754 mmHg 93%
05:00 +12°C° 0 mm 2 m/S 755 mmHg 88%
06:00 +13°C° 0 mm 2 m/S 755 mmHg 83%
07:00 +14°C° 0 mm 2 m/S 755 mmHg 78%
08:00 +15°C° 0 mm 2 m/S 755 mmHg 72%
09:00 +17°C° 0 mm 3 m/S 755 mmHg 67%
10:00 +18°C° 0 mm 3 m/S 755 mmHg 61%
11:00 +19°C° 0 mm 3 m/S 755 mmHg 58%
12:00 +19°C° 0 mm 3 m/S 755 mmHg 55%
13:00 +20°C° 0 mm 3 m/S 755 mmHg 51%
14:00 +21°C° 0 mm 3 m/S 754 mmHg 50%
15:00 +21°C° 0 mm 3 m/S 754 mmHg 49%
16:00 +21°C° 0 mm 3 m/S 754 mmHg 48%
17:00 +20°C° 0 mm 2 m/S 754 mmHg 53%
18:00 +21°C° 0 mm 1 m/S 753 mmHg 58%
19:00 +20°C° 0 mm 1 m/S 753 mmHg 63%
20:00 +19°C° 0 mm 1 m/S 753 mmHg 65%
21:00 +16°C° 0 mm 1 m/S 753 mmHg 67%
22:00 +15°C° 0 mm 1 m/S 753 mmHg 69%
23:00 +15°C° 0 mm 1 m/S 753 mmHg 70%
Mehr zeigen